Retour au catalogue

STARLINK-37385

ActifCommunicationsVLEO
NORAD 69175·PAYLOAD·🇺🇸 United States

Lancé May 21, 2026 depuis Cape Canaveral Space Force Station

Loading…

Prochains Passages (prochaines 24 heures)

TLE

FraisSource: CelesTrak SupGP

Époque: Sep 14, 2026, 22:41 UTC

1 69175C 26111AD  26257.94562500  .00036792  00000+0  10871-2 0  2574
2 69175  53.1570  91.4777 0001280  84.7021 117.3097 15.34369104    14

Suivez STARLINK-37385 en temps réel avec AllMySat

Download on the App Store